ONEWEB-0059 (45162 NORAD) Tracking and Keplerian Element Data

This shows tracking and keplerian element data for the satellite.

Feedback or suggestion? Click here.




ElementValue
Catalog45162
NameONEWEB-0059
Epoch Orbit3988
Epoch Day304.91667824
Epoch Year2020
RAAN84.9996
Inclination87.9563
Eccentricity0.0023016
Argument of Perigee96.7158
Mean Anonmoly275.0801
Mean Motion13.2847385
Decay Rate-5.99E-05
L11 45162U 20008AH 20304.91667824 -.00005990 00000-0 -13150-1 0 9996
L22 45162 87.9563 84.9996 0023016 96.7158 275.0801 13.28473850 39883

Live tracking and technical data element details for ONEWEB-0059 (NORAD 45162). ONEWEB-0059 can be tracked NOW for your location showing map with azimuth and elevation plus other details from your city location.

Track the satellite on the map from your city or location and see movement details for azimuth, elevation, latitude, longitude, range, height, and movement on the map or in text.







IsCatalogInMostPopularTable: catalog: 45162, numindb: 65
Update: records affected: 1



GetName: 45162 ONEWEB-0059

Hit Count: updated at: Sat, 31 Oct 2020 12:53:05 GMT